Location: Branche des Alpilles
(43.6087°N, 4.6976°E)
Time: 10:19:12
(UTC+00:00)

FENGYUN 1C DEB - Pass Details

Date: 22 June 2021
Orbit: 782 x 878 km, 99.7° (Epoch: 28 July)

Event Time Altitude Azimuth Distance (km) Brightness Sun altitude
Exits shadow 23:30:09 - 102° (ESE) 3,251 ? -22.9°
Reaches altitude 10° 23:34:06 10° 71° (ENE) 2,377 ? -22.9°
Maximum altitude 23:35:35 11° 54° (NE) 2,289 ? -22.9°
Drops below altitude 10° 23:37:03 10° 37° (NE) 2,369 ? -22.9°
Sets 23:41:12 0° 5° (N) 3,290 ? -23.0°
